This demonstration page uses our WeatherBlox Daily Observations layout. Learn more.

Left ArrowRight Arrow

53.62937, 11.41316

Hourly Observations for July 10, 2016

Temp ( °F °C ) Dew Point ( °F °C ) Humidity (%) Winds ( mph kmh ) Pressure ( in mb ) Visibility ( mi km ) Precip ( " mm )
6:20 am 06:20 Mostly Cloudy 64 18 57 14 78 78 SSW 7 11 29.91 1013 30 48 N/A
6:50 am 06:50 Mostly Cloudy 66 19 57 14 73 73 SSW 9 15 29.91 1013 30 48 N/A
7:20 am 07:20 Mostly Sunny 66 19 59 15 78 78 SSW 9 15 29.91 1013 7 11 N/A
7:50 am 07:50 Mostly Sunny 68 20 59 15 73 73 SSW 12 19 29.88 1012 7 11 N/A
8:20 am 08:20 Mostly Sunny 70 21 61 16 73 73 SW 12 19 29.88 1012 7 11 N/A
8:50 am 08:50 Mostly Sunny 70 21 59 15 69 69 WSW 16 26 29.91 1013 7 11 N/A
9:20 am 09:20 Mostly Sunny 72 22 61 16 69 69 SW 17 28 29.88 1012 7 11 N/A
9:50 am 09:50 Mostly Sunny 72 22 61 16 69 69 WSW 16 26 29.88 1012 7 11 N/A
10:20 am 10:20 Mostly Sunny 73 23 61 16 65 65 WSW 14 22 29.88 1012 7 11 N/A
10:50 am 10:50 Mostly Sunny 75 24 63 17 65 65 WSW 14 22 29.88 1012 7 11 N/A
11:20 am 11:20 Mostly Sunny 75 24 63 17 65 65 SW 17 28 29.88 1012 7 11 N/A
11:50 am 11:50 Mostly Sunny 77 25 63 17 61 61 WSW 16 26 29.88 1012 7 11 N/A
12:20 pm 12:20 Mostly Sunny 79 26 63 17 58 58 W 13 20 29.88 1012 7 11 N/A
12:50 pm 12:50 Mostly Sunny 81 27 61 16 51 51 WSW 14 22 29.85 1011 7 11 N/A
1:20 pm 13:20 Mostly Sunny 79 26 61 16 54 54 WSW 16 26 29.85 1011 7 11 N/A
1:50 pm 13:50 Mostly Sunny 81 27 61 16 51 51 WSW 14 22 29.85 1011 7 11 N/A
2:20 pm 14:20 Mostly Sunny 82 28 61 16 48 48 SW 15 24 29.85 1011 7 11 N/A
2:50 pm 14:50 Mostly Sunny 82 28 61 16 48 48 SW 14 22 29.83 1010 7 11 N/A
3:20 pm 15:20 Mostly Sunny 82 28 61 16 48 48 SW 14 22 29.83 1010 7 11 N/A
3:50 pm 15:50 Mostly Sunny 81 27 61 16 51 51 SW 17 28 29.83 1010 7 11 N/A
4:20 pm 16:20 Mostly Sunny 81 27 61 16 51 51 SSW 12 19 29.83 1010 7 11 N/A
4:50 pm 16:50 Mostly Sunny 81 27 61 16 51 51 SSW 9 15 29.83 1010 7 11 N/A
5:20 pm 17:20 Mostly Sunny 81 27 61 16 51 51 SSW 10 17 29.80 1009 7 11 N/A
5:50 pm 17:50 Mostly Sunny 81 27 61 16 51 51 SSW 13 20 29.80 1009 7 11 N/A
6:20 pm 18:20 Mostly Sunny 81 27 61 16 51 51 SSW 13 20 29.80 1009 7 11 N/A
6:50 pm 18:50 Mostly Sunny 81 27 63 17 54 54 SSW 9 15 29.80 1009 7 11 N/A

Powered by AerisWeather